Regional Weather Roundup
Issued by NWS Grand Forks, ND

Home | Current Version | Previous Version | Graphics & Text | Print | Product List | Glossary On
Versions: 1 2 3 4 5 6 7 8 9 10 11 12 13 14 15 16 17 18 19 20 21 22 23 24 25 26 27 28 29 30 31 32 33 34 35 36 37 38 39 40 41 42 43 44 45 46 47 48 49 50
000
ASUS43 KFGF 232010
RWRFGF
PRAIRIE TO PINES  WEATHER ROUNDUP
NATIONAL WEATHER SERVICE EASTERN NORTH DAKOTA/GRAND FORKS ND
300 PM CDT SAT JUL 23 2016

 **SATELLITE DATA USED TO AUGMENT SKY COVER AT AUTOMATED STATIONS**
 *****  WEATHER ACROSS EASTERN NORTH DAKOTA  *****

CITY           SKY/WX    TMP DP  RH WIND       PRES   REMARKS
GRAND FORKS    CLOUDY    73  67  81 E14       29.68F
GRAND FRKS AFB MOSUNNY   73  73  99 E13       29.69F
GRAND FRKS NWS   N/A     68 N/A N/A E18         N/A
DEVILS LAKE    CLOUDY    73  67  81 CALM      29.77R
FARGO          CLOUDY    81  70  69 S14G20    29.73F
WAHPETON ARPT  CLOUDY    81  68  65 S14       29.75F
$$

 ***** WEATHER ACROSS CENTRAL AND WESTERN NORTH DAKOTA  *****

CITY           SKY/WX    TMP DP  RH WIND       PRES   REMARKS
BISMARCK       MOSUNNY   81  66  60 NW15G24   29.80R
MINOT          MOSUNNY   84  62  47 W17G24    29.76F
JAMESTOWN      CLOUDY    77  69  76 S8        29.76R
MINOT AFB      SUNNY     79  62  55 W12G23    29.75F
GARRISON         N/A     79  64  60 NW15G23   29.80F
WILLISTON      SUNNY     82  49  31 W28G36    29.82F
DICKINSON      SUNNY     80  45  28 NW17G30   29.87F
HETTINGER      SUNNY     85  44  23 NW22G36   29.91S
$$

 *****  OTHER AIRPORT OBSERVATIONS IN OUR AREA  *****

CITY           SKY/WX    TMP DP  RH WIND       PRES   REMARKS
WALHALLA       FAIR      72  68  88 NW6       29.76R
GRAFTON AIRPOR FAIR      72  70  94 SE7       29.73R
VALLEY CITY AR FAIR      77  73  88 SE9       29.78R
CANDO          NOT AVBL
CAVALIER APRT  FAIR      73  66  78 S3        29.74R
GWINNER        FAIR      81  72  74 E9        29.74F
SHEYENNE NWR     N/A     81  72  73 SE15      29.95S
ROLLA            N/A     75  66  73 SW9       29.78S
 ***** THE ABOVE OBSERVATIONS ARE NON NWS ARE NOT QUALITY
       CONTROLLED AND MAY MIS-REPORT RAIN FOR SNOW...
$$

  *****  WEATHER ACROSS NORTHERN MINNESOTA  *****

CITY           SKY/WX    TMP DP  RH WIND       PRES   REMARKS
FLAG ISLAND    CLOUDY    72  63  73 NE7       29.83S
WARROAD        TSTM      70  64  83 N10       29.83R
ROSEAU         TSTM      66  63  88 N6        29.84R VSB 1
HALLOCK        CLOUDY    68  64  88 E20G25    29.69F
THF RVR FALLS  CLOUDY    68  65  90 E10       29.74F
BAUDETTE       CLOUDY    76  64  66 SE10      29.81F
WASKISH        CLOUDY    79  68  69 SE9G17    29.80F
CROOKSTON      LGT RAIN  66  66 100 E9G25     29.72F
STEPHEN NDAWN    N/A     70  66  88 E16         N/A
GREENBUSH NDAW   N/A     66  64  94 E20         N/A
$$
  *****  WEATHER ACROSS CENTRAL AND WEST MINNESOTA  *****

CITY           SKY/WX    TMP DP  RH WIND       PRES   REMARKS
FOSSTON        LGT RAIN  72  64  78 SE15G21   29.75F
BEMIDJI        CLOUDY    75  66  73 S14       29.84S
PARK RAPIDS    LGT RAIN  73  70  90 S10       29.83F
ELBOW LAKE     FAIR      79  70  74 SE7       29.81R
WADENA         LGT RAIN  73  70  88 E13       29.82F
DETROIT LAKES  CLOUDY    75  68  78 SE10      29.83F
MOORHEAD       CLOUDY    81  70  69 SE16G26   29.72F
FERGUS FALLS   CLOUDY    77  68  73 S7        29.79F
MORRIS MN      CLOUDY    82  73  74 SE13      29.78F
STAPLES        CLOUDY    72  66  83 SE8       29.84F
$$
  *****  WEATHER ELSEWHERE ACROSS MINNESOTA  *****

CITY           SKY/WX    TMP DP  RH WIND       PRES   REMARKS
DULUTH         CLOUDY    73  62  68 SE13      29.90F
INTRNTL FALLS  CLOUDY    78  64  61 SE13      29.85F
ELY            CLOUDY    72  57  60 E7        29.91F
CLOQUET        CLOUDY    68  59  73 E8        29.91R
WHEATON        DRIZZLE   79  73  83 SE8       29.79S
BRAINERD       LGT RAIN  70  69  97 SW6       29.86F
HIBBING        CLOUDY    74  62  66 SE12      29.85F
ALEXANDRIA     CLOUDY    75  68  78 SE16G28   29.83F
SAINT CLOUD    LGT RAIN  70  70 100 SE8       29.87F
MINNEAPOLIS    CLOUDY    75  68  78 SE15      29.85F
$$

  *****  WEATHER ACROSS SOUTH DAKOTA  *****

CITY           SKY/WX    TMP DP  RH WIND       PRES   REMARKS
SIOUX FALLS    MOSUNNY   90  73  57 S12       29.77F HX  98
BROOKINGS      MOSUNNY   87  74  64 S13G22    29.77  HX  95
WATERTOWN      CLOUDY    88  73  61 S9        29.78F HX  95
HURON          SUNNY     92  70  48 SW12      29.72S HX  97
SISSETON         N/A     75  73  93 N13       29.77S
ABERDEEN       PTSUNNY   86  73  65 S5        29.73F HX  93
MITCHELL       SUNNY     93  70  46 SW9G21    29.74R HX  99
PIERRE         SUNNY     93  66  40 NW23G33   29.75R HX  96
MOBRIDGE       MOSUNNY   85  69  58 NW14G24   29.77R
RAPID CITY     SUNNY     88  43  20 N25G37    29.93F
$$

  *****  SOME WEATHER IN NEARBY STATES *****

CITY           SKY/WX    TMP DP  RH WIND       PRES   REMARKS
GLASGOW MT     SUNNY     79  50  36 W25G33    29.89R
GREAT FALLS MT PTSUNNY   76  39  26 W9        30.07F
CHEYENNE WY    SUNNY     93  37  14 W13       30.13F
SCOTTSBLUFF NE SUNNY     96  49  20 NW9       29.98F HX  93
OMAHA NE       PTSUNNY   90  72  55 S16       29.81F HX  97
DES MOINES IA  CLOUDY    89  79  72 S8        29.84F HX 104
DAVENPORT IA   CLOUDY    88  79  74 SE12      29.91F HX 103
CHICAGO IL     CLOUDY    90  73  57 SW9       29.95F HX  98
EAU CLAIRE WI  LGT RAIN  73  71  93 SE15      29.88F
LA CROSSE WI   TSTM      73  70  90 CALM      29.96R FOG
$$

  *****  SOME NATIONAL WEATHER *****

CITY           SKY/WX    TMP DP  RH WIND       PRES   REMARKS
LA GUARDIA NY  MOSUNNY   95  56  26 NW14G24   29.81S HX  93
RALEIGH NC     MOSUNNY   94  73  50 SE10      29.96F HX 103
ATLANTA GA     CLOUDY    90  69  50 SW8       30.02S HX  94
NEW ORLEANS LA CLOUDY    92  78  63 S13       29.97F HX 107
OKLAHOMA CITY  MOSUNNY  100  66  32 S12G22    29.93F HX 104
ALBUQUERQUE NM MOSUNNY   96  44  16 MISG      30.11F HX  92
SALT LAKE CITY MOSUNNY   92  30  11 N10       30.10F
LOS ANGELES CA PTSUNNY   83  64  52 W9        29.81S
BOISE ID       SUNNY     79  34  19 NW10      30.14F
SEATTLE WA     PTSUNNY   66  54  65 VRB3      30.28S
$$

*** WEATHER ACROSS MANITOBA...SASKATCHEWAN AND ONTARIO ***
                ***ONTARIO***

CITY           SKY/WX    TMP DP  RH WIND       PRES   REMARKS
GERALDTON      PTSUNNY   75  54  46 SE7       30.01R
THUNDER BAY    PTSUNNY   72  61  68 E10       29.98F
SIOUX LOOKOUT  LGT RAIN  70  66  88 E3        29.96R
TORONTO        MOSUNNY   93  54  26 NW14G22   29.91S HX  91
BIG TROUT LK   SUNNY     72  52  49 SE8       29.92F
PICKLE LAKE    CLOUDY    77  55  47 SW6       29.95R
DRYDEN         LGT RAIN  73  66  78 NE6       29.91F
KENORA         CLOUDY    68  63  83 NE9       29.88F
$$
                *** MANITOBA***

CITY           SKY/WX    TMP DP  RH WIND       PRES   REMARKS
BRANDON        PTSUNNY   75  66  73 W8        29.72F
DAUPHIN        MOSUNNY   73  68  83 NE3       29.67F
ISLAND LAKE    NOT AVBL
PILOT MOUND      N/A     75  66  73 S6          N/A
THE PAS        LGT RAIN  70  59  68 E9        29.69R
THOMPSON       CLOUDY    68  61  77 S10G17    29.75F
WINNIPEG       PTSUNNY   72  64  78 E13G20    29.73F
LYNN LAKE      CLOUDY    64  59  82 MISG      29.70F
CHURCHILL      LGT RAIN  61  55  82 S13G20    29.69F
GILLAM         PTSUNNY   73  54  49 S14G24    29.77F
$$
                ***SASKATCHEWAN***

CITY           SKY/WX    TMP DP  RH WIND       PRES   REMARKS
ESTEVAN        MOSUNNY   79  54  41 W18G25    29.75F
KINDERSLEY     MOSUNNY   72  54  53 NW15G23   29.90S
LLOYDMINSTER   PTSUNNY   68  52  56 NW14G22   29.89R
PRINCE ALBERT  PTSUNNY   72  61  68 VRB6      29.72F
REGINA         PTSUNNY   70  59  68 W23G32    29.74R
YORKTON        PTSUNNY   73  63  68 SW20G26   29.63S
N. BATTLEFORD  MOSUNNY   73  52  46 NW18G28   29.83S
LA RONGE       PTSUNNY   72  63  73 SE8       29.70R
SASKATOON      TSTM      64  59  82 NW17G36   29.78R
SWIFT CURRENT  PTSUNNY   64  57  77 NW15G24   29.91R
$$
NOTE: THESE ARE AUTOMATED STATIONS WITH LIMITED QUALITY CONTROL
      "FAIR" INDICATES FEW OR NO CLOUDS BELOW 12,000 FEET WITH NO
      SIGNIFICANT WEATHER AND/OR OBSTRUCTIONS TO VISIBILITY.
      SKY/WX - SKY CONDITION AND SIGNIFICANT WEATHER.
      TMP - AIR TEMPERATURE.    DP   - DEWPOINT TEMPERATURE.
      RH  - RELATIVE HUMIDITY.  PRES - PRESSURE.
      HX  - HEAT INDEX.         WCI  - WIND CHILL INDEX.
$




USA.gov is the U.S. government's official web portal to all federal, state and local government web resources and services.